Location: Newark
(7.0858°N, 171.3717°E)
Time: 17:17:06
(UTC+00:00)

Altair - Pass Details

Date: 27 November 2020
Orbit: 1501 x 1682 km, 47.2° (Epoch: 20 January)

Event Time Altitude Azimuth Distance (km) Brightness Sun altitude
Rises 06:57:34 0° 223° (SW) 4,850 11.4 -10.8°
Reaches altitude 10° 07:00:44 10° 224° (SW) 3,840 10.7 -11.5°
Maximum altitude 07:10:29 78° 310° (NW) 1,599 7.6 -13.8°
Enters shadow 07:19:17 12° 36° (NE) 3,514 8.9 -15.8°
